Buffalo, NY

6:01 PM EDT on August 20, 2017 (GMT -0400)
Buffalo Niagara International

Weather History for KBUF - May, 2013

Change the Weather History Date:

Thursday, May 16, 2013

  Actual Average Record
Temperature  
Mean Temperature 61 °F 57 °F  
Max Temperature 73 °F 67 °F 89 °F (1991)
Min Temperature 49 °F 47 °F 32 °F (1936)
Degree Days  
Heating Degree Days 4 9  
Month to date heating degree days 90 174  
Since 1 July heating degree days 5948 6455  
Cooling Degree Days 0 1  
Month to date cooling degree days 13 4  
Year to date cooling degree days 13 7  
Growing Degree Days 12 (Base 50)    
Moisture  
Dew Point 44 °F    
Average Humidity 53    
Maximum Humidity 83    
Minimum Humidity 23    
Precipitation  
Precipitation 0.00 in 0.11 in 1.36 in (1893)
Month to date precipitation 1.19 1.67  
Year to date precipitation 11.72 13.22  
Snow  
Snow 0.00 in 0.00 in T in (1959)
Month to date snowfall T 0.2  
Since 1 July snowfall 58.8 94.6  
Snow Depth 0.00 in    
Sea Level Pressure  
Sea Level Pressure 29.84 in    
Wind  
Wind Speed 11 mph (WSW)    
Max Wind Speed 22 mph    
Max Gust Speed 28 mph    
Visibility 10 miles    
Events      
T = Trace of Precipitation, MM = Missing Value Source: NWS Daily Summary

Daily Weather History Graph

Daily Weather History Graph

Search for Another Location

Airport or City:

Trip Planner

Search our weather history database for the weather conditions in past years. The results will help you decide how hot, cold, wet, or windy it might be!

Date:

Astronomy

May. 16, 2013 Rise Set
Actual Time 5:50 AM EDT 8:32 PM EDT
Civil Twilight 5:17 AM EDT 9:05 PM EDT
Nautical Twilight 4:36 AM EDT 9:46 PM EDT
Astronomical Twilight 3:49 AM EDT 10:34 PM EDT
Moon 11:24 AM EDT (5/16) 12:50 AM EDT (5/16)
Length of Visible Light 15h 47m
Length of Day
14h 41m
Waxing Crescent, 35% of the Moon is Illuminated
May 16
Waxing Crescent
May 18
First Quarter
May 25
Full
May 31
Last Quarter
Jun 8
New

Hourly Weather History & Observations

Time (EDT) Temp. Dew Point Humidity Pressure Visibility Wind Dir Wind Speed Gust Speed Precip Events Conditions
12:54 AM 59.0 °F 48.0 °F 67% 29.74 in 10.0 mi WSW 5.8 mph - N/A   Overcast
1:54 AM 57.0 °F 48.0 °F 72% 29.76 in 10.0 mi WSW 6.9 mph - N/A   Mostly Cloudy
2:54 AM 55.0 °F 48.0 °F 77% 29.76 in 10.0 mi SSW 4.6 mph - N/A   Mostly Cloudy
3:54 AM 54.0 °F 46.9 °F 77% 29.76 in 10.0 mi SSW 6.9 mph - N/A   Mostly Cloudy
4:54 AM 52.0 °F 46.9 °F 83% 29.76 in 10.0 mi SSW 6.9 mph - N/A   Mostly Cloudy
5:54 AM 51.1 °F 46.9 °F 86% 29.78 in 10.0 mi SW 6.9 mph - N/A   Scattered Clouds
6:54 AM 54.0 °F 48.0 °F 80% 29.79 in 10.0 mi SW 8.1 mph - N/A   Scattered Clouds
7:54 AM 60.1 °F 48.9 °F 67% 29.79 in 10.0 mi SW 10.4 mph - N/A   Scattered Clouds
8:54 AM 63.0 °F 48.0 °F 58% 29.80 in 10.0 mi SW 15.0 mph - N/A   Partly Cloudy
9:54 AM 64.0 °F 48.0 °F 56% 29.81 in 10.0 mi WSW 13.8 mph - N/A   Partly Cloudy
10:54 AM 66.0 °F 45.0 °F 47% 29.81 in 10.0 mi WSW 18.4 mph - N/A   Partly Cloudy
11:54 AM 68.0 °F 44.1 °F 42% 29.81 in 10.0 mi WSW 16.1 mph - N/A   Partly Cloudy
12:54 PM 68.0 °F 45.0 °F 43% 29.81 in 10.0 mi SW 12.7 mph 20.7 mph N/A   Partly Cloudy
1:54 PM 69.1 °F 46.0 °F 44% 29.81 in 10.0 mi WSW 15.0 mph - N/A   Partly Cloudy
2:54 PM 68.0 °F 48.0 °F 49% 29.82 in 10.0 mi SW 12.7 mph - N/A   Partly Cloudy
3:54 PM 66.9 °F 48.0 °F 51% 29.83 in 10.0 mi SW 15.0 mph - N/A   Partly Cloudy
4:54 PM 66.9 °F 48.0 °F 51% 29.84 in 10.0 mi SW 11.5 mph - N/A   Partly Cloudy
5:54 PM 71.6 °F 35.6 °F 27% 29.85 in 10.0 mi WNW 13.8 mph 23.0 mph N/A   Partly Cloudy
6:54 PM 69.1 °F 30.0 °F 23% 29.88 in 10.0 mi NW 16.1 mph 25.3 mph N/A   Partly Cloudy
7:54 PM 66.0 °F 32.0 °F 28% 29.92 in 10.0 mi NW 12.7 mph - N/A   Partly Cloudy
8:54 PM 59.0 °F 39.9 °F 49% 29.96 in 10.0 mi North 9.2 mph - N/A   Partly Cloudy
9:54 PM 55.0 °F 39.9 °F 57% 29.98 in 10.0 mi North 11.5 mph - N/A   Partly Cloudy
10:54 PM 52.0 °F 39.9 °F 63% 30.01 in 10.0 mi North 8.1 mph - N/A   Clear
11:54 PM 51.1 °F 39.0 °F 63% 30.03 in 10.0 mi North 4.6 mph - N/A   Clear